Hobbs, NM

3:34 AM MDT on April 26, 2017 (GMT -0600)
Lea County Regional

Weather History for KHOB - April, 2014

Change the Weather History Date:

Thursday, April 24, 2014

  Actual Average Record
Temperature  
Mean Temperature 64 °F -  
Max Temperature 77 °F 77 °F 95 °F (2002)
Min Temperature 51 °F 48 °F 28 °F (2013)
Degree Days  
Heating Degree Days 1    
Growing Degree Days 14 (Base 50)    
Moisture  
Dew Point 22 °F    
Average Humidity 22    
Maximum Humidity 34    
Minimum Humidity 11    
Precipitation  
Precipitation 0.00 in - - ()
Sea Level Pressure  
Sea Level Pressure 29.97 in    
Wind  
Wind Speed 11 mph (North)    
Max Wind Speed 26 mph    
Max Gust Speed 36 mph    
Visibility 10 miles    
Events      
Averages and records for this station are not official NWS values.
T = Trace of Precipitation, MM = Missing Value Source: NWS Daily Summary

Daily Weather History Graph

Daily Weather History Graph

Search for Another Location

Airport or City:

Trip Planner

Search our weather history database for the weather conditions in past years. The results will help you decide how hot, cold, wet, or windy it might be!

Date:

Astronomy

Apr. 24, 2014 Rise Set
Actual Time 6:13 AM MDT 7:29 PM MDT
Civil Twilight 5:47 AM MDT 7:55 PM MDT
Nautical Twilight 5:16 AM MDT 8:26 PM MDT
Astronomical Twilight 4:44 AM MDT 8:58 PM MDT
Moon 3:08 AM MDT (4/24) 3:02 PM MDT (4/24)
Length of Visible Light 14h 08m
Length of Day
13h 16m
Waning Crescent, 24% of the Moon is Illuminated
Apr 24
Waning Crescent
Apr 29
New
May 6
First Quarter
May 14
Full
May 21
Last Quarter

Hourly Weather History & Observations

Time (MDT) Temp. Dew Point Humidity Pressure Visibility Wind Dir Wind Speed Gust Speed Precip Events Conditions
12:15 AM 68.0 °F 19.4 °F 16% 29.80 in 10.0 mi West 10.4 mph - N/A   Clear
12:35 AM 66.2 °F 19.4 °F 17% 29.80 in 10.0 mi WSW 8.1 mph - N/A   Clear
12:55 AM 64.4 °F 21.2 °F 19% 29.80 in 10.0 mi West 15.0 mph - N/A   Clear
1:15 AM 64.4 °F 23.0 °F 21% 29.82 in 10.0 mi WNW 17.3 mph - N/A   Clear
1:35 AM 64.4 °F 23.0 °F 21% 29.83 in 10.0 mi WNW 15.0 mph - N/A   Clear
1:55 AM 62.6 °F 23.0 °F 22% 29.84 in 10.0 mi WNW 13.8 mph - N/A   Clear
2:15 AM 60.8 °F 23.0 °F 23% 29.84 in 10.0 mi NW 10.4 mph - N/A   Clear
2:35 AM 59.0 °F 23.0 °F 25% 29.85 in 10.0 mi NW 11.5 mph - N/A   Clear
2:55 AM 55.4 °F 23.0 °F 29% 29.86 in 10.0 mi NW 9.2 mph - N/A   Clear
3:15 AM 53.6 °F 23.0 °F 30% 29.87 in 10.0 mi WNW 10.4 mph - N/A   Clear
3:35 AM 55.4 °F 23.0 °F 29% 29.88 in 10.0 mi WNW 9.2 mph - N/A   Clear
3:55 AM 51.8 °F 23.0 °F 33% 29.89 in 10.0 mi WNW 9.2 mph - N/A   Clear
5:50 AM 57.2 °F 14.0 °F 18% 29.95 in 10.0 mi WNW 15.0 mph 23.0 mph N/A   Clear
6:50 AM 57.2 °F 12.2 °F 17% 29.98 in 10.0 mi WNW 19.6 mph - N/A   Clear
7:50 AM 60.8 °F 14.0 °F 16% 30.04 in 10.0 mi NW 26.5 mph 35.7 mph N/A   Clear
8:07 AM 59.0 °F 23.0 °F 25% 30.06 in 3.0 mi NNW 24.2 mph 29.9 mph N/A   Widespread Dust
9:50 AM 60.8 °F 32.0 °F 34% 30.10 in 7.0 mi North 17.3 mph 27.6 mph N/A   Clear
10:50 AM 64.4 °F 32.0 °F 30% 30.09 in 9.0 mi North 18.4 mph 23.0 mph N/A   Clear
11:50 AM 68.0 °F 30.2 °F 24% 30.08 in 10.0 mi North 17.3 mph 24.2 mph N/A   Clear
12:50 PM 71.6 °F 28.4 °F 20% 30.07 in 10.0 mi North 11.5 mph 19.6 mph N/A   Clear
1:50 PM 71.6 °F 26.6 °F 19% 30.05 in 10.0 mi NNW 10.4 mph 16.1 mph N/A   Clear
2:50 PM 73.4 °F 23.0 °F 15% 30.03 in 10.0 mi West 8.1 mph - N/A   Clear
4:50 PM 75.2 °F 19.4 °F 12% 29.99 in 10.0 mi West 6.9 mph - N/A   Clear
5:15 PM 77.0 °F 19.4 °F 12% 29.99 in 9.0 mi North 3.5 mph - N/A   Clear
5:35 PM 77.0 °F 17.6 °F 11% 29.99 in 9.0 mi NW 3.5 mph - N/A   Clear
5:50 PM 77.0 °F 19.4 °F 12% 29.99 in 10.0 mi North 4.6 mph - N/A   Clear
5:55 PM 75.2 °F 21.2 °F 13% 29.99 in 9.0 mi NE 4.6 mph - N/A   Clear
6:15 PM 75.2 °F 19.4 °F 12% 29.98 in 8.0 mi SE 3.5 mph - N/A   Clear
6:35 PM 73.4 °F 19.4 °F 13% 29.98 in 10.0 mi ENE 4.6 mph - N/A   Clear
6:55 PM 71.6 °F 19.4 °F 14% 29.98 in 9.0 mi NE 4.6 mph - N/A   Clear
7:15 PM 71.6 °F 21.2 °F 15% 29.99 in 9.0 mi East 5.8 mph - N/A   Clear
7:35 PM 68.0 °F 23.0 °F 18% 29.99 in 9.0 mi East 6.9 mph - N/A   Clear
7:55 PM 66.2 °F 21.2 °F 18% 29.99 in 10.0 mi East 8.1 mph - N/A   Clear
8:15 PM 64.4 °F 21.2 °F 19% 30.00 in 10.0 mi East 6.9 mph - N/A   Clear
8:35 PM 62.6 °F 23.0 °F 22% 30.00 in 10.0 mi East 8.1 mph - N/A   Clear
8:55 PM 59.0 °F 23.0 °F 25% 30.00 in 10.0 mi East 6.9 mph - N/A   Clear
9:15 PM 59.0 °F 23.0 °F 25% 30.01 in 10.0 mi ESE 8.1 mph - N/A   Clear
9:35 PM 57.2 °F 23.0 °F 27% 30.01 in 10.0 mi ESE 6.9 mph - N/A   Clear
9:55 PM 57.2 °F 23.0 °F 27% 30.01 in 10.0 mi ESE 8.1 mph - N/A   Clear
10:15 PM 59.0 °F 23.0 °F 25% 30.01 in 10.0 mi ESE 8.1 mph - N/A   Clear
10:35 PM 57.2 °F 23.0 °F 27% 30.01 in 10.0 mi East 5.8 mph - N/A   Clear
10:55 PM 55.4 °F 23.0 °F 29% 30.01 in 10.0 mi SE 6.9 mph - N/A   Clear
11:15 PM 55.4 °F 24.8 °F 31% 30.01 in 10.0 mi SSE 8.1 mph - N/A   Clear
11:35 PM 53.6 °F 23.0 °F 30% 30.01 in 10.0 mi South 8.1 mph - N/A   Clear
11:55 PM 53.6 °F 23.0 °F 30% 30.01 in 10.0 mi South 5.8 mph - N/A   Clear